Regional Weather Roundup
Issued by NWS Upton, NY

Current Version | Previous Version | Graphics & Text | Print | Product List | Glossary Off
Versions: 1 2 3 4 5 6 7 8 9 10 11 12 13 14 15 16 17 18 19 20 21 22 23 24 25 26 27 28 29 30 31 32 33 34 35 36 37 38 39 40 41 42 43 44 45 46 47 48 49 50
000 ASUS41 KOKX 310504 RWROKX REGIONAL WEATHER ROUNDUP NATIONAL WEATHER SERVICE NEW YORK NY 100 AM EDT MON AUG 31 2015 NOTE: "FAIR" INDICATES FEW OR NO CLOUDS BELOW 12,000 FEET WITH NO SIGNIFICANT WEATHER AND/OR OBSTRUCTIONS TO VISIBILITY. NYZ071-072-176-178-NJZ106-104-310600- NEW YORK CITY METRO AREA CITY SKY/WX TMP DP RH WIND PRES REMARKS CENTRAL PARK CLOUDY 78 67 68 VRB6 30.06F LAGUARDIA APRT CLOUDY 80 67 64 SW9 30.02F KENNEDY INTL CLOUDY 77 67 71 SW9 30.05S NEWARK/LIBERTY CLOUDY 80 66 62 SW14 30.03F BRNX BOT. GARD N/A 81 64 57 W10 30.03F TETERBORO CLOUDY 80 64 58 SW7 30.02S $$ NYZ177-179-078>081-310600- LONG ISLAND NEW YORK CITY SKY/WX TMP DP RH WIND PRES REMARKS FARMINGDALE CLOUDY 76 70 82 SW5 30.04F ISLIP CLOUDY 74 70 87 SW8 30.02F SHIRLEY CLOUDY 77 67 71 SW9 30.04F WESTHAMPTON CLOUDY 75 71 87 SW6 30.05S MONTAUK POINT N/A 76 70 82 SW12G18 30.04F $$ NYZ052-065-067-310600- HUDSON VALLEY CITY SKY/WX TMP DP RH WIND PRES REMARKS WHITE PLAINS MOCLDY 72 67 84 CALM 30.03F NEWBURGH CLEAR 72 70 94 CALM 30.05S MONTGOMERY MOCLDY 69 67 93 W3 30.03F FOG POUGHKEEPSIE PTCLDY 69 66 90 CALM 30.02S ALBANY PTCLDY 69 64 84 CALM 30.01F $$ NJZ001-105-106-008-010-013-015-019>022-104-310600- NEW JERSEY CITY SKY/WX TMP DP RH WIND PRES REMARKS NEWARK/LIBERTY CLOUDY 80 66 62 SW14 30.03F TETERBORO CLOUDY 80 64 58 SW7 30.02S CALDWELL CLOUDY 77 64 64 CALM 30.04S MORRISTOWN CLOUDY 77 63 61 W5 30.04F SOMERVILLE CLOUDY 70 66 87 S3 30.03F SUSSEX CLOUDY 69 67 93 CALM 30.05S FOG ANDOVER N/A 68 67 96 CALM 30.06F TRENTON NOT AVBL MILLVILLE CLOUDY 76 68 76 SW5 30.08F ATLANTIC CITY CLOUDY 76 67 73 SW7 30.08F WRIGHTSTOWN CLOUDY 73 66 78 SW7 30.04F TOMS RIVER CLOUDY 72 64 78 SW6 30.08S BELMAR CLOUDY 75 63 64 SW8 30.06S $$ PAZ047>061-062-071-310600- EASTERN PENNSYLVANIA CITY SKY/WX TMP DP RH WIND PRES REMARKS PHILADELPHIA CLOUDY 79 65 62 SW10 30.07F ALLENTOWN CLOUDY 72 67 84 W3 30.06S SCRANTON MOCLDY 72 66 81 SW3 30.07S $$ CTZ002-004>006-009-010-012-RIZ004-006-007-MAZ004-011-015-310600- SOUTHERN NEW ENGLAND IN CT CITY SKY/WX TMP DP RH WIND PRES REMARKS BRADLEY INTL PTCLDY 69 67 93 CALM 30.01S HARTFORD PTCLDY 71 68 90 CALM 30.01F DANBURY CLOUDY 71 66 84 CALM 30.05S WTRBRY/OXFORD FAIR 72 63 73 CALM 30.06S BRIDGEPORT MOCLDY 77 71 82 SW6 30.02S MERIDEN PTCLDY 71 67 87 CALM 30.02S NEW HAVEN MOCLDY 76 71 85 SW5 30.02F CHESTER NOT AVBL GROTON MOCLDY 73 71 93 S3 30.01F WILLIMANTIC CLOUDY 69 67 93 N5 30.02F FOG IN RI CITY SKY/WX TMP DP RH WIND PRES REMARKS PROVIDENCE PTCLDY 73 67 81 SW5 30.02F BLOCK ISLAND MOCLDY 72 70 94 SW9 30.04S WESTERLY MOCLDY 74 69 85 CALM 30.03F IN MA CITY SKY/WX TMP DP RH WIND PRES REMARKS BOSTON PTCLDY 76 65 68 SW8 30.00S WORCESTER CLEAR 68 62 81 W7 30.05S WESTFIELD CLEAR 67 65 93 CALM 30.02S PROVINCETOWN CLOUDY 72 63 73 SW10 30.01S NANTUCKET PTCLDY 72 70 93 SW9 30.03F $$ ANZ330-335-338-340-345-350-353-355-310600- COASTAL MARINE OBSERVATIONS STATION/POSITION TIME SKY/WX TEMP WIND PRES VSBY WAVE AIR SEA DIR/SP/G HT/PER (UTC) (F) (DEG/KT/KT) (MB) (MI) (FT/S) NY HARB ENTRANCE 0350 77 76 220/ 14/ 14 1017.2 3/11 4S FIRE IS NOT AVBL 20S FIRE ISLAND 0350 76 74 230/ 16/ 19 1017.4 4/ 5 GREAT SOUTH BAY 0400 75 78 280/ 14/ 19 N/A 23SW MTP 0450 76 73 240/ 16/ 19 1016.7 4/10 HUDSON CANYON NOT AVBL KINGS POINT NOT AVBL EXECUTION ROCKS 0400 77 180/ 6/ 8 N/A CENTRAL LI SOUND NOT AVBL EASTERN LI SOUND 0400 72 70 180/ 2/ 4 N/A ROBBINS REEF NOT AVBL $$ >>>>>>>>>>>>>>>>>>>>>>>>>>>> KEY <<<<<<<<<<<<<<<<<<<<<<<<<<< > < > SKY/WX - SKY CONDITION/PRESENT WEATHER < > TMP - TEMPERATURE IN FAHRENHEIT < > DP - DEWPOINT IN FAHRENHEIT < > RH - RELATIVE HUMIDITY IN PERCENT < > WIND - DIRECTION AND SPEED IN MPH < > PRES - MEAN SEA LEVEL PRESSURE IN INCHES OF HG < > WCI - WIND CHILL INDEX < > VSB - VISIBILITY IN MILES < > HX - HEAT INDEX < > TC - TEMPERATURE IN CELSIUS < > VRB - VARIABLE WIND DIRECTION < > < >>>>>>>>>>>>>>>>>>>>>>>>>>>> KEY <<<<<<<<<<<<<<<<<<<<<<<<<<<

USA.gov is the U.S. government's official web portal to all federal, state and local government web resources and services.